Jamestown, ND

8:55 PM CST on February 22, 2018 (GMT -0600)
Jamestown Municipal

Weather History for KJMS - July, 2013

Change the Weather History Date:

Wednesday, July 10, 2013

  Actual Average Record
Temperature  
Mean Temperature 67 °F 70 °F  
Max Temperature 81 °F 82 °F 113 °F (1936)
Min Temperature 53 °F 57 °F 40 °F (1924)
Degree Days  
Heating Degree Days 0 1  
Month to date heating degree days 0 10  
Since 1 June heating degree days 85 107  
Since 1 July heating degree days 0 10  
Cooling Degree Days 2 5  
Month to date cooling degree days 72 50  
Year to date cooling degree days 183 150  
Since 1 June cooling degree days 172 130  
Growing Degree Days 17 (Base 50)    
Moisture  
Dew Point 50 °F    
Average Humidity 60    
Maximum Humidity 93    
Minimum Humidity 26    
Precipitation  
Precipitation 0.00 in 0.12 in 1.56 in (1933)
Month to date precipitation 0.17 1.22  
Year to date precipitation 7.52 9.96  
Sea Level Pressure  
Sea Level Pressure 30.07 in    
Wind  
Wind Speed 5 mph (West)    
Max Wind Speed 14 mph    
Max Gust Speed 18 mph    
Visibility 10 miles    
Events      
T = Trace of Precipitation, MM = Missing Value Source: NWS Daily Summary

Daily Weather History Graph

Daily Weather History Graph

Search for Another Location

Airport or City:

Trip Planner

Search our weather history database for the weather conditions in past years. The results will help you decide how hot, cold, wet, or windy it might be!

Date:

Astronomy

Jul. 10, 2013 Rise Set
Actual Time 5:50 AM CDT 9:29 PM CDT
Civil Twilight 5:12 AM CDT 10:07 PM CDT
Nautical Twilight 4:20 AM CDT 10:58 PM CDT
Astronomical Twilight 3:09 AM CDT 12:09 AM CDT
Moon 8:25 AM CDT (7/10) 10:25 PM CDT (7/10)
Length of Visible Light 16h 55m
Length of Day
15h 38m
Waxing Crescent, 5% of the Moon is Illuminated
Jul 10
Waxing Crescent
Jul 15
First Quarter
Jul 22
Full
Jul 29
Last Quarter
Aug 6
New

Hourly Weather History & Observations

Time (CDT) Temp. Dew Point Humidity Pressure Visibility Wind Dir Wind Speed Gust Speed Precip Events Conditions
12:56 AM 55.0 °F 53.1 °F 93% 30.10 in 10.0 mi NNW 5.8 mph - N/A   Clear
1:56 AM 54.0 °F 52.0 °F 93% 30.10 in 10.0 mi NW 4.6 mph - N/A   Clear
2:56 AM 55.9 °F 52.0 °F 87% 30.11 in 10.0 mi West 4.6 mph - N/A   Clear
3:56 AM 54.0 °F 51.1 °F 90% 30.11 in 10.0 mi West 4.6 mph - N/A   Clear
4:56 AM 54.0 °F 52.0 °F 93% 30.11 in 10.0 mi West 4.6 mph - N/A   Clear
5:56 AM 54.0 °F 52.0 °F 93% 30.12 in 9.0 mi West 5.8 mph - N/A   Clear
6:56 AM 55.0 °F 53.1 °F 93% 30.12 in 8.0 mi Calm Calm - N/A   Clear
7:56 AM 60.1 °F 55.0 °F 83% 30.12 in 9.0 mi West 3.5 mph - N/A   Clear
8:56 AM 64.0 °F 55.9 °F 75% 30.12 in 10.0 mi West 5.8 mph - N/A   Clear
9:56 AM 69.1 °F 55.0 °F 61% 30.12 in 10.0 mi West 6.9 mph - N/A   Clear
10:56 AM 71.1 °F 51.1 °F 49% 30.12 in 10.0 mi Variable 6.9 mph - N/A   Clear
11:56 AM 73.0 °F 48.0 °F 41% 30.10 in 9.0 mi SW 5.8 mph - N/A   Clear
12:56 PM 75.9 °F 48.9 °F 38% 30.09 in 10.0 mi WSW 8.1 mph - N/A   Clear
1:56 PM 77.0 °F 48.0 °F 36% 30.07 in 10.0 mi Variable 3.5 mph - N/A   Clear
2:56 PM 79.0 °F 46.0 °F 31% 30.05 in 10.0 mi WSW 6.9 mph - N/A   Clear
3:56 PM 80.1 °F 45.0 °F 29% 30.04 in 10.0 mi WNW 9.2 mph - N/A   Clear
4:56 PM 80.1 °F 44.1 °F 28% 30.02 in 10.0 mi West 10.4 mph - N/A   Clear
5:56 PM 80.1 °F 43.0 °F 27% 30.01 in 10.0 mi WSW 9.2 mph - N/A   Clear
6:56 PM 79.0 °F 45.0 °F 30% 30.00 in 10.0 mi Calm Calm - N/A   Clear
7:56 PM 78.1 °F 46.9 °F 33% 30.00 in 10.0 mi WNW 3.5 mph - N/A   Clear
8:56 PM 75.9 °F 48.0 °F 37% 29.99 in 10.0 mi Calm Calm - N/A   Clear
9:56 PM 66.0 °F 53.1 °F 63% 30.01 in 10.0 mi SSE 4.6 mph - N/A   Clear
10:56 PM 64.9 °F 53.1 °F 65% 30.01 in 10.0 mi South 4.6 mph - N/A   Clear
11:56 PM 61.0 °F 53.1 °F 75% 30.01 in 10.0 mi South 6.9 mph - N/A   Clear